Temperature
20 20 19 19 20 21 22 23 25 25 26 26 26 26 25 23 22 20 19 19 19 18 18 18 18 18 18 18 18 18 18 18 18 18 18 18 18 18 18 18 18 18 18 18 18 18 18 18 18
20 19 19 20 21 22 22 23 24 25 26 26 26 25 24 23 21 20 19 19 19 18 18 18 18 18 18 18 18 18 18 18 18 17 17 17 17 17 17 17 17 17 17 17 18 18 18 18 18
20 19 20 21 22 22 23 24 25 26 26 26 26 25 24 23 21 20 19 19 19 18 18 18 18 18 18 18 18 17 17 17 17 17 17 17 17 17 17 17 17 17 17 17 17 17 17 17 18
19 20 21 22 23 24 25 25 25 26 26 26 26 24 23 22 21 20 20 19 19 18 18 18 18 18 18 18 17 17 17 17 17 17 17 17 17 17 17 17 17 17 17 17 17 17 17 17 17
19 20 21 23 24 25 26 26 26 25 26 26 25 23 21 21 21 20 20 20 19 19 18 18 18 18 18 17 17 17 17 16 16 16 16 16 17 17 17 17 17 17 17 17 17 17 17 17 17
20 21 22 23 24 25 26 26 26 25 25 25 24 23 21 21 21 20 20 20 19 19 19 19 18 18 18 17 17 17 16 16 16 16 16 16 16 16 16 16 16 16 16 16 16 17 17 17 17
20 21 22 24 24 24 26 25 25 25 25 25 25 23 21 21 21 20 20 20 19 19 19 18 18 18 18 17 17 17 17 16 16 16 16 16 16 16 16 16 16 16 16 16 16 16 16 17 17
20 21 22 23 23 24 25 26 25 25 25 25 25 23 21 21 21 20 20 20 20 19 19 19 18 18 18 17 17 17 17 16 16 16 16 16 16 16 16 15 16 16 16 16 16 16 16 16 17
21 21 21 23 23 23 25 25 25 25 25 24 24 23 22 21 21 21 20 20 20 20 20 19 19 18 18 18 17 17 17 16 16 16 16 16 16 16 16 15 16 16 16 16 16 16 16 16 16
21 20 22 23 24 24 25 25 25 25 24 24 23 22 22 21 21 21 21 21 20 20 20 20 20 19 19 18 18 17 17 17 16 16 16 16 16 16 16 16 16 15 15 15 15 15 16 16 16
22 22 23 23 24 25 25 25 25 24 23 23 23 22 22 22 22 22 21 21 21 21 20 20 20 19 19 18 18 17 17 17 17 16 16 16 16 16 16 16 15 15 15 15 15 15 16 16 16
23 23 23 24 24 24 25 25 25 24 23 23 23 23 22 22 22 22 22 22 21 21 21 20 20 20 19 18 18 18 17 17 17 16 16 16 16 16 16 16 16 15 15 15 15 15 15 16 16
23 23 24 24 24 24 25 25 25 24 24 24 23 23 23 23 23 22 22 22 21 21 21 20 20 20 19 19 18 18 18 17 17 16 16 16 16 15 15 15 15 15 15 15 15 15 15 16 16
23 24 24 25 25 25 25 25 25 24 24 24 23 23 23 23 23 23 22 22 22 21 21 20 20 19 19 19 18 18 18 17 17 16 16 16 16 16 15 15 15 15 15 15 15 15 15 15 16
24 24 24 25 25 25 25 24 25 25 24 24 24 24 23 23 23 23 23 22 22 22 21 20 20 19 19 19 18 18 18 17 17 16 16 16 16 16 15 15 15 15 15 15 15 15 15 15 15
24 23 23 25 25 25 24 23 25 25 25 25 24 24 24 24 24 23 23 23 22 22 21 21 20 19 19 18 18 18 17 17 16 16 16 16 15 15 15 15 14 14 14 14 14 15 15 15 15
23 22 23 24 26 26 24 23 25 25 25 25 25 24 24 24 24 23 23 23 22 22 21 21 20 19 19 18 18 18 17 17 16 16 15 15 15 15 15 14 14 14 14 14 14 14 14 15 15
22 23 24 24 25 26 25 24 25 25 25 25 25 25 24 24 24 24 23 23 22 22 21 21 20 19 19 18 18 18 17 17 16 16 15 15 15 14 14 14 14 14 14 14 14 14 14 15 15
24 24 24 25 26 26 25 24 25 25 26 26 25 25 25 24 24 23 23 22 22 22 21 21 20 20 19 18 18 18 17 17 16 16 15 15 14 14 14 14 14 14 14 14 14 14 14 14 15
24 24 25 26 27 26 25 25 25 26 26 25 25 25 25 24 24 23 23 22 22 21 21 21 20 20 19 19 18 18 17 17 16 16 15 15 14 14 14 14 14 14 14 14 14 14 14 14 14
24 25 25 25 26 26 25 24 25 26 26 26 25 25 25 25 24 23 23 22 22 21 21 21 21 20 19 19 18 17 17 17 16 16 16 15 15 14 14 14 14 14 14 14 14 14 14 14 14
24 25 25 26 25 24 25 23 24 25 25 25 25 25 24 24 24 23 23 22 22 22 21 21 21 20 19 19 18 17 17 17 16 16 16 15 15 15 14 14 14 14 14 14 14 14 14 14 14
24 26 26 26 25 25 25 24 24 25 24 25 25 24 24 24 23 23 22 22 22 21 21 21 20 20 19 19 18 17 17 17 16 16 16 15 15 15 15 14 14 14 14 14 14 14 14 14 14
25 26 25 25 25 23 24 24 23 24 24 25 25 24 24 23 23 22 22 21 21 21 20 20 20 20 19 18 18 17 17 17 16 16 16 16 16 15 15 15 14 14 14 14 14 14 14 14 14
26 25 23 22 22 22 25 25 24 25 26 25 25 24 23 23 22 21 21 21 21 20 20 20 19 19 19 18 18 17 17 17 17 16 16 16 16 16 15 15 14 14 14 14 14 14 14 14 14
25 24 22 21 22 23 25 25 24 25 25 25 24 23 23 22 21 21 20 20 20 20 20 19 19 19 18 18 18 18 17 17 17 16 16 16 16 16 15 15 15 14 14 14 14 14 14 14 14
25 23 23 22 23 24 25 24 24 25 25 25 24 23 22 21 21 20 20 20 20 19 19 19 19 19 18 18 18 18 17 17 17 16 16 16 16 16 16 15 15 15 15 14 14 14 14 14 14
25 25 24 23 23 23 24 24 23 23 24 24 23 23 22 21 21 20 20 19 19 19 19 19 19 19 18 18 18 17 17 17 17 16 16 16 16 16 16 16 15 15 15 15 15 14 14 14 14
26 25 25 25 25 25 24 24 26 24 24 23 23 22 21 21 20 20 19 19 19 19 19 19 19 18 18 18 18 17 17 17 16 16 16 16 16 16 16 16 16 16 15 15 15 14 14 14 14
27 27 26 25 26 26 24 23 26 24 24 23 22 22 21 20 20 19 19 19 19 19 19 19 18 18 18 17 17 17 17 17 16 16 16 16 16 16 16 16 16 16 16 15 15 15 14 14 14
Wind_Speed
8 9 6 3 3 3 1 2 5 6 6 8 9 10 13 12 9 8 3 8 15 15 15 13 13 12 12 11 11 11 11 10 10 10 9 9 8 8 7 7 6 6 6 6 6 6 6 6 6
7 6 4 3 3 1 1 2 7 7 6 5 8 12 13 12 12 9 5 9 14 14 14 14 13 12 12 11 11 11 10 10 9 9 9 8 7 7 7 6 6 6 6 6 6 6 6 5 6
7 6 3 3 3 1 2 3 5 6 5 5 8 12 9 7 10 7 7 11 14 15 16 14 13 12 12 11 11 10 10 9 9 8 8 8 7 7 6 6 6 6 5 5 5 6 5 5 5
3 3 4 4 4 1 4 4 3 4 4 6 8 9 10 9 8 10 11 11 14 15 16 14 13 12 12 11 10 10 10 9 8 8 7 7 7 6 6 5 5 5 5 5 5 5 5 4 4
2 3 4 4 2 3 6 5 4 5 5 9 12 11 10 11 13 12 10 11 12 14 15 14 13 12 11 11 10 10 9 8 8 7 7 6 5 5 5 5 5 5 5 5 5 5 5 5 4
2 3 4 3 2 4 6 5 4 4 6 7 11 11 8 10 10 10 10 9 11 12 14 15 14 13 12 11 10 9 8 7 6 5 5 4 3 3 3 3 4 5 5 5 5 5 5 5 5
2 3 5 3 2 3 5 4 4 4 5 5 7 9 9 10 9 10 10 8 9 10 11 13 13 12 12 11 9 7 5 4 3 2 2 2 3 3 3 1 2 3 4 5 5 5 5 5 5
3 4 5 3 3 3 4 3 4 5 4 4 6 8 8 10 10 10 9 9 8 8 8 9 12 13 13 11 9 8 6 4 3 2 4 6 7 7 6 3 1 2 3 5 5 6 6 7 7
4 3 3 2 3 3 3 3 4 4 5 7 10 11 12 13 12 10 8 7 7 6 6 7 7 7 9 11 10 10 9 6 6 7 8 8 6 3 5 3 4 3 4 5 6 7 8 9 9
3 2 2 2 2 2 2 3 2 4 5 8 11 12 14 11 11 10 9 8 8 6 5 6 6 5 5 4 7 6 6 7 5 1 2 3 4 5 3 2 4 5 7 8 8 9 10 10 9
4 4 2 1 1 2 2 2 3 4 4 6 11 13 12 11 10 9 8 7 7 7 5 5 5 5 4 3 3 2 1 2 1 4 4 3 5 5 4 1 2 5 6 4 4 7 7 6 4
5 4 2 1 1 2 2 2 3 5 4 5 9 13 11 10 9 8 7 8 7 7 5 4 4 5 5 5 2 1 1 2 3 6 7 5 2 2 3 2 2 3 3 2 3 3 4 4 5
6 4 4 3 1 1 1 1 2 4 6 7 9 11 11 9 9 7 7 7 7 7 6 6 4 5 5 4 1 1 3 2 3 5 5 5 2 3 2 2 2 3 4 2 3 4 4 4 4
6 6 6 5 3 2 2 2 3 5 8 9 9 8 9 8 8 8 8 7 8 8 7 6 4 4 3 3 2 3 2 2 3 5 4 4 3 2 3 4 3 3 4 3 3 4 4 4 3
6 6 7 6 6 4 3 3 4 7 8 9 9 8 8 8 8 8 8 7 8 8 8 7 4 4 5 6 5 3 2 4 3 3 5 6 6 4 3 4 4 4 6 5 3 4 4 5 4
8 8 6 7 8 5 3 1 4 7 7 7 7 8 7 8 9 8 7 6 6 7 9 8 5 5 6 5 4 3 4 4 3 4 6 9 10 8 3 4 4 5 5 4 4 3 3 4 4
8 8 9 8 9 7 5 2 4 6 6 6 7 7 8 8 8 8 7 7 6 6 8 9 7 6 6 5 3 2 3 2 2 5 6 8 10 9 5 3 3 6 4 4 6 4 4 4 4
10 10 10 9 9 8 7 5 6 6 6 6 6 7 6 8 7 8 7 7 6 6 5 9 8 6 6 3 1 3 2 2 2 3 5 5 5 7 5 3 4 4 4 4 4 5 5 3 3
9 10 10 9 10 8 7 6 7 6 4 5 6 6 6 6 7 8 6 7 7 6 5 8 8 6 5 2 1 2 2 1 3 3 4 3 4 6 4 4 4 3 3 4 5 4 6 4 3
8 9 9 9 10 8 7 8 7 7 5 4 4 5 6 8 8 8 8 7 6 6 5 7 8 7 6 3 1 2 2 1 2 1 2 2 4 5 6 5 5 4 3 4 4 4 4 4 4
8 6 7 10 9 7 8 8 8 8 7 6 5 4 4 7 9 8 8 6 6 6 6 4 7 8 7 5 2 3 2 1 1 1 2 1 2 2 3 4 5 5 4 3 4 4 4 4 4
4 5 8 10 10 7 8 6 7 9 7 6 5 5 5 5 6 6 6 6 5 6 5 5 6 7 6 6 4 2 1 1 1 1 1 0 2 2 2 3 4 4 3 4 5 5 4 3 4
3 6 8 9 7 5 7 6 7 8 7 7 7 6 6 6 6 5 5 5 4 4 3 3 5 6 6 5 5 2 1 0 1 0 1 1 1 2 2 0 3 4 3 3 4 3 3 3 3
5 6 7 6 3 4 7 6 5 6 8 9 8 8 7 7 7 6 6 6 5 5 4 4 5 5 5 3 3 4 2 2 2 2 1 1 1 2 3 1 2 3 3 3 3 3 3 3 3
7 6 4 3 2 4 7 5 6 9 10 9 9 9 8 7 7 7 7 6 5 4 4 4 5 4 4 3 3 3 3 3 2 0 1 1 1 1 1 1 1 1 2 2 3 3 2 2 2
7 4 1 2 3 4 6 6 9 11 10 10 10 9 9 8 7 7 6 5 4 4 4 3 4 4 4 3 3 2 2 2 1 0 1 2 1 1 2 2 1 1 1 2 2 2 2 3 3
5 4 2 3 4 4 6 10 10 10 10 10 10 9 8 8 7 7 6 5 5 4 3 3 3 3 3 3 3 2 2 1 1 2 2 1 1 1 1 1 2 2 1 1 2 1 3 3 2
4 2 4 3 2 4 9 11 10 13 11 10 9 9 8 7 7 7 6 6 5 4 3 3 2 2 1 2 2 1 1 1 1 2 2 2 3 1 2 2 3 3 4 3 1 1 1 3 2
7 6 4 4 4 2 5 4 11 14 12 11 10 9 8 7 7 6 5 6 6 5 4 3 3 2 1 0 0 0 1 1 2 3 2 3 4 4 3 3 3 3 2 3 3 2 2 3 3
4 5 5 3 2 1 3 5 9 12 11 11 11 9 8 8 7 6 6 6 6 5 4 3 3 2 1 1 1 1 1 1 3 3 3 4 4 4 3 3 3 4 3 2 3 3 3 3 3
Wind_Direction
275 268 267 273 268 244 342 40 70 59 60 46 47 67 68 54 56 90 124 102 108 108 109 101 96 95 92 89 85 80 76 72 71 68 65 62 60 55 50 44 39 37 34 32 29 25 22 16 12
282 281 275 250 269 297 68 47 71 70 75 71 62 67 71 66 79 98 110 102 107 107 104 99 98 95 92 88 84 80 76 72 69 66 63 60 56 52 47 40 34 31 28 25 21 19 18 10 5
269 265 267 256 274 346 86 80 79 84 73 70 78 68 60 67 83 104 120 115 108 103 99 100 98 95 91 87 82 80 76 71 67 64 59 55 50 45 41 36 33 28 21 14 9 7 4 356 352
267 270 252 254 278 25 92 102 104 89 84 76 82 76 64 62 93 120 130 122 114 110 106 105 101 97 93 88 83 78 74 70 65 59 54 48 44 39 35 31 25 19 13 4 358 354 347 339 338
265 265 260 258 269 76 81 84 81 73 60 74 83 90 83 82 103 123 126 118 113 113 114 116 112 106 100 93 86 80 73 69 62 54 47 42 38 36 33 27 19 11 6 1 355 345 335 324 318
269 257 266 270 77 69 71 71 76 79 71 81 99 103 100 110 115 119 110 108 112 114 119 122 122 118 112 105 96 86 76 69 60 50 38 26 17 15 13 14 17 9 357 350 346 338 327 314 305
258 272 270 286 80 71 76 63 65 85 72 62 97 104 116 120 120 115 111 108 107 116 126 135 139 135 130 123 117 111 101 89 74 39 343 313 298 285 275 304 20 3 347 334 327 325 319 305 292
265 290 291 317 67 59 69 87 85 83 90 76 82 105 126 135 132 121 122 123 123 124 130 138 148 147 148 146 145 146 151 166 193 233 263 270 269 255 251 234 149 330 322 314 310 304 301 291 280
275 267 289 356 61 66 68 86 90 95 89 74 72 100 130 141 137 132 134 131 129 129 135 133 135 136 150 155 156 173 181 201 223 222 243 268 278 237 224 159 170 235 268 279 284 283 283 277 270
221 250 278 6 53 75 75 87 118 115 98 97 96 107 127 143 143 149 151 148 147 148 140 132 127 130 124 98 140 176 167 182 217 154 216 291 354 353 344 146 217 240 255 266 266 270 276 269 255
218 233 265 312 23 40 62 99 106 102 104 125 131 134 141 154 157 157 152 142 139 137 126 127 127 114 106 105 92 71 92 140 119 52 359 7 15 353 4 355 227 250 254 261 288 263 269 271 261
224 233 231 261 78 25 12 67 89 101 126 131 134 141 151 166 163 161 148 136 135 124 118 104 96 108 95 80 59 188 82 57 58 46 8 31 12 338 17 318 14 333 342 353 324 290 287 297 307
224 220 218 229 203 259 289 161 121 113 133 134 135 147 160 169 163 163 147 136 131 122 123 95 66 67 93 104 263 74 86 42 74 76 358 22 12 358 355 326 9 340 354 349 324 309 319 317 309
216 219 217 221 217 224 240 221 181 139 147 149 148 157 166 168 164 160 156 156 148 145 136 127 122 103 100 115 75 68 63 117 60 70 355 7 30 357 5 358 358 356 345 338 317 313 329 323 316
215 218 219 210 213 202 223 225 191 152 159 160 160 163 168 171 171 170 165 166 154 149 136 122 116 101 77 60 36 54 65 57 48 58 6 12 27 15 35 13 1 349 343 345 342 340 342 326 323
213 216 213 200 202 195 206 198 159 159 167 164 166 165 173 174 179 172 163 159 152 142 130 130 128 108 92 77 46 26 52 49 33 46 31 17 17 17 32 25 357 342 354 353 339 346 344 332 330
203 205 201 187 193 185 184 170 162 163 174 173 171 171 178 175 177 163 163 154 145 130 133 138 128 116 99 102 128 73 54 54 39 52 49 24 5 8 28 1 341 3 360 356 342 1 348 331 326
202 199 196 177 179 186 179 169 167 176 186 171 162 170 182 175 169 158 155 140 130 126 136 125 118 118 115 112 118 100 78 38 62 59 61 28 353 6 14 347 20 12 354 353 346 353 338 314 301
219 202 192 166 165 173 169 151 151 163 168 168 161 162 167 170 150 133 133 135 139 143 145 131 140 139 127 125 111 91 80 40 78 77 77 3 2 10 9 2 360 5 356 355 351 352 338 331 341
234 201 167 146 154 159 158 137 141 143 146 128 133 148 166 157 136 138 145 149 154 153 167 164 151 138 131 127 118 121 102 67 101 80 117 39 31 19 2 12 352 358 353 359 352 359 351 338 355
227 191 164 154 150 162 139 127 129 126 111 105 105 111 113 125 134 143 144 145 150 161 183 175 138 137 140 139 100 66 75 305 111 149 113 104 82 43 11 356 351 343 5 357 347 16 4 344 336
198 174 178 167 164 168 157 137 135 125 114 109 95 85 82 91 101 117 127 141 161 169 176 163 142 139 135 134 119 122 114 15 80 57 114 184 145 104 46 0 342 337 358 3 2 22 349 349 344
190 167 179 187 185 172 162 139 138 129 126 110 100 95 96 96 95 96 105 114 115 117 114 108 110 116 120 125 135 156 207 303 61 33 101 306 147 146 134 350 318 325 350 16 6 5 350 349 353
166 181 188 208 211 198 175 139 144 147 131 117 108 98 92 96 96 89 82 85 85 87 89 93 100 103 113 135 157 177 202 219 235 231 191 270 230 178 153 161 319 332 5 6 357 350 352 359 352
205 194 186 179 172 199 180 134 126 115 113 113 109 100 90 85 91 89 85 85 86 97 103 110 122 128 141 174 210 197 211 245 251 217 192 246 282 149 134 107 340 346 348 341 357 341 342 341 347
207 215 220 189 184 166 177 131 118 111 106 104 101 98 92 87 86 90 94 96 100 107 117 129 138 148 164 188 221 230 217 241 279 156 264 247 241 183 138 137 208 271 341 341 352 327 340 353 352
207 191 229 273 221 176 141 111 124 128 124 112 104 98 92 89 87 86 82 88 94 102 111 122 140 161 172 190 205 214 241 226 274 279 273 287 269 231 131 194 218 211 197 273 336 339 351 343 350
265 257 197 228 217 177 148 153 159 152 140 126 116 106 99 92 88 86 88 86 86 90 99 111 110 120 140 183 209 191 231 236 228 284 306 310 295 251 220 245 245 221 201 196 199 297 294 313 296
203 220 236 232 232 187 154 121 148 150 143 135 123 112 105 96 89 84 83 84 86 88 86 93 100 82 66 358 275 252 215 244 239 246 254 267 278 265 226 217 244 247 223 195 182 231 256 290 298
261 258 242 262 266 197 127 107 122 134 132 129 122 116 108 101 95 89 84 81 75 78 87 78 86 92 65 3 342 297 238 232 259 245 235 253 272 286 275 224 232 249 235 213 195 222 239 251 271
Height
1500 1500 1500 1502 1502 1503 1502 1494 1487 1486 1486 1487 1486 1487 1491 1495 1501 1512 1512 1511 1511 1512 1512 1513 1514 1514 1515 1515 1516 1516 1517 1518 1518 1518 1519 1519 1520 1520 1521 1521 1521 1522 1522 1522 1522 1522 1522 1523 1523
1500 1501 1502 1502 1503 1506 1504 1493 1489 1488 1488 1488 1488 1490 1494 1499 1504 1509 1511 1512 1513 1513 1514 1514 1515 1515 1516 1516 1517 1517 1517 1518 1518 1519 1519 1519 1520 1520 1520 1521 1521 1521 1522 1522 1522 1522 1522 1523 1523
1500 1501 1503 1500 1500 1502 1500 1490 1488 1488 1489 1489 1491 1494 1498 1503 1506 1509 1512 1513 1514 1514 1515 1516 1516 1516 1517 1517 1518 1518 1518 1518 1518 1519 1519 1519 1519 1520 1520 1520 1521 1521 1521 1521 1521 1522 1522 1522 1523
1502 1503 1502 1500 1500 1492 1489 1488 1488 1488 1489 1490 1492 1497 1503 1506 1508 1511 1513 1515 1515 1515 1516 1517 1517 1517 1518 1518 1518 1518 1518 1518 1519 1519 1519 1519 1519 1519 1520 1520 1520 1520 1520 1521 1521 1521 1521 1522 1522
1502 1503 1501 1499 1494 1487 1485 1487 1489 1490 1490 1492 1495 1501 1507 1510 1511 1512 1514 1516 1517 1517 1517 1518 1518 1519 1519 1519 1519 1519 1519 1519 1519 1519 1519 1519 1519 1519 1519 1519 1519 1519 1519 1519 1520 1520 1520 1520 1521
1503 1501 1504 1502 1494 1488 1487 1489 1490 1492 1493 1494 1497 1502 1509 1511 1513 1514 1516 1517 1518 1518 1519 1519 1519 1520 1520 1520 1520 1520 1520 1520 1519 1519 1519 1519 1519 1519 1519 1519 1518 1518 1518 1518 1518 1518 1518 1519 1519
1504 1501 1501 1496 1495 1492 1490 1491 1492 1493 1494 1496 1498 1502 1509 1512 1514 1516 1517 1519 1520 1520 1520 1520 1521 1521 1521 1521 1521 1521 1521 1521 1520 1520 1520 1519 1519 1519 1519 1518 1518 1518 1517 1517 1517 1517 1517 1517 1517
1502 1502 1499 1496 1497 1496 1491 1492 1494 1495 1497 1498 1499 1503 1509 1513 1515 1516 1518 1520 1521 1522 1522 1522 1522 1522 1522 1522 1522 1522 1522 1521 1521 1521 1520 1520 1520 1519 1519 1518 1518 1517 1517 1516 1516 1516 1516 1516 1516
1501 1504 1504 1498 1498 1496 1492 1493 1495 1496 1497 1499 1501 1504 1508 1512 1515 1517 1519 1520 1522 1523 1524 1524 1524 1524 1524 1523 1523 1523 1522 1522 1522 1521 1521 1521 1520 1520 1520 1519 1518 1517 1516 1516 1515 1515 1515 1515 1515
1501 1504 1500 1495 1494 1494 1493 1494 1495 1497 1499 1502 1504 1507 1510 1513 1515 1517 1519 1520 1522 1523 1525 1525 1525 1526 1526 1526 1525 1524 1524 1523 1523 1523 1522 1522 1521 1521 1521 1520 1519 1517 1516 1515 1515 1515 1514 1514 1514
1498 1499 1496 1495 1494 1494 1494 1495 1496 1497 1501 1502 1504 1508 1510 1513 1515 1517 1519 1520 1522 1524 1525 1526 1526 1527 1527 1526 1526 1526 1525 1525 1524 1523 1523 1522 1522 1521 1520 1519 1518 1517 1516 1516 1515 1514 1514 1514 1514
1496 1495 1495 1495 1495 1495 1495 1495 1497 1498 1501 1503 1505 1507 1510 1513 1515 1517 1519 1520 1522 1524 1526 1527 1527 1527 1527 1527 1526 1526 1526 1525 1525 1524 1523 1522 1521 1521 1520 1519 1518 1517 1517 1516 1515 1514 1514 1514 1514
1494 1494 1495 1495 1495 1496 1496 1496 1497 1499 1501 1503 1506 1508 1510 1512 1514 1516 1518 1521 1523 1524 1526 1527 1528 1528 1527 1527 1526 1527 1526 1525 1525 1523 1523 1522 1522 1521 1520 1519 1518 1517 1516 1515 1514 1513 1513 1513 1512
1493 1493 1493 1494 1494 1495 1496 1496 1497 1499 1501 1504 1506 1508 1510 1512 1514 1516 1519 1520 1522 1524 1525 1526 1528 1528 1528 1527 1527 1527 1526 1526 1525 1524 1523 1523 1521 1520 1519 1518 1517 1516 1515 1514 1513 1513 1512 1512 1511
1491 1493 1493 1492 1493 1494 1496 1497 1496 1498 1501 1503 1505 1507 1509 1511 1513 1515 1517 1520 1521 1523 1525 1526 1527 1528 1528 1528 1527 1527 1527 1526 1525 1524 1523 1523 1522 1521 1519 1518 1517 1515 1514 1513 1513 1512 1511 1510 1510
1491 1494 1498 1491 1492 1493 1499 1504 1496 1497 1499 1501 1504 1506 1508 1510 1512 1515 1517 1519 1521 1523 1524 1526 1527 1528 1528 1527 1527 1527 1527 1526 1525 1524 1523 1522 1521 1520 1519 1517 1516 1515 1514 1513 1512 1511 1510 1509 1509
1493 1498 1497 1492 1489 1490 1495 1501 1496 1496 1498 1500 1502 1504 1507 1509 1511 1514 1516 1519 1521 1523 1524 1525 1526 1527 1527 1527 1527 1527 1527 1526 1525 1524 1523 1522 1521 1520 1519 1518 1516 1515 1514 1512 1511 1510 1509 1508 1508
1497 1493 1492 1491 1488 1489 1494 1496 1495 1496 1497 1499 1501 1503 1505 1508 1510 1513 1515 1518 1520 1522 1524 1525 1526 1527 1527 1527 1528 1527 1526 1526 1525 1524 1522 1521 1521 1520 1519 1518 1516 1515 1513 1512 1511 1510 1509 1508 1508
1486 1487 1489 1486 1483 1488 1493 1495 1494 1495 1496 1498 1500 1502 1504 1507 1509 1512 1515 1517 1520 1522 1524 1525 1525 1526 1527 1527 1527 1527 1526 1526 1525 1524 1522 1522 1521 1520 1519 1518 1516 1515 1514 1513 1511 1510 1509 1508 1507
1483 1486 1486 1484 1482 1487 1492 1494 1494 1495 1496 1498 1500 1501 1503 1506 1509 1512 1514 1517 1519 1521 1523 1524 1525 1526 1526 1527 1527 1527 1526 1526 1525 1524 1523 1522 1521 1520 1519 1517 1516 1515 1514 1513 1512 1510 1509 1508 1508
1484 1484 1485 1486 1484 1486 1492 1500 1497 1495 1497 1499 1501 1502 1504 1506 1509 1512 1514 1516 1518 1520 1522 1524 1525 1525 1526 1526 1526 1526 1526 1525 1525 1524 1523 1522 1521 1520 1519 1517 1516 1515 1514 1513 1512 1511 1510 1509 1509
1487 1479 1481 1484 1491 1496 1494 1514 1502 1497 1499 1500 1502 1504 1505 1507 1510 1512 1514 1516 1518 1520 1521 1523 1524 1524 1525 1525 1525 1525 1525 1525 1525 1524 1523 1522 1521 1520 1519 1517 1516 1515 1515 1514 1512 1511 1510 1510 1509
1482 1476 1479 1482 1488 1495 1494 1506 1507 1499 1503 1502 1503 1505 1507 1509 1511 1513 1514 1516 1517 1519 1520 1522 1522 1523 1524 1524 1524 1525 1525 1525 1525 1524 1523 1522 1521 1520 1518 1517 1516 1516 1515 1514 1513 1512 1511 1510 1510
1478 1479 1482 1484 1491 1509 1499 1506 1512 1502 1502 1502 1504 1506 1508 1510 1512 1513 1514 1516 1517 1518 1519 1520 1521 1522 1523 1523 1524 1524 1524 1524 1524 1523 1523 1522 1521 1520 1519 1518 1517 1516 1515 1514 1513 1512 1511 1511 1510
1479 1487 1502 1509 1515 1513 1493 1501 1508 1497 1497 1501 1504 1508 1510 1511 1513 1514 1514 1515 1516 1517 1518 1519 1520 1521 1522 1522 1523 1523 1523 1524 1524 1523 1523 1522 1521 1521 1519 1518 1517 1516 1515 1514 1513 1512 1512 1511 1511
1481 1488 1508 1520 1519 1507 1492 1501 1503 1496 1499 1502 1506 1509 1511 1513 1514 1514 1515 1516 1516 1517 1517 1518 1519 1520 1521 1522 1522 1523 1523 1523 1523 1522 1522 1522 1521 1520 1519 1518 1517 1516 1515 1514 1514 1513 1512 1512 1511
1482 1489 1492 1503 1501 1505 1497 1500 1500 1498 1501 1504 1507 1510 1513 1514 1515 1515 1516 1516 1516 1517 1517 1518 1519 1520 1521 1521 1521 1522 1522 1522 1522 1521 1521 1521 1521 1520 1519 1518 1517 1516 1515 1514 1513 1513 1512 1512 1511
1478 1481 1490 1500 1507 1510 1503 1504 1506 1502 1503 1505 1508 1511 1513 1515 1515 1516 1517 1517 1517 1517 1518 1518 1519 1520 1520 1521 1521 1521 1521 1521 1520 1520 1520 1520 1520 1519 1518 1517 1517 1516 1515 1514 1513 1513 1512 1511 1511
1478 1481 1481 1485 1485 1498 1509 1506 1486 1494 1499 1503 1508 1511 1513 1515 1516 1516 1517 1518 1518 1518 1518 1519 1519 1519 1520 1520 1520 1520 1520 1520 1519 1519 1519 1519 1518 1518 1517 1517 1516 1516 1515 1514 1513 1513 1512 1511 1511
1468 1470 1475 1487 1485 1483 1496 1508 1486 1491 1497 1502 1507 1511 1514 1515 1516 1517 1518 1518 1518 1519 1519 1519 1519 1519 1519 1519 1519 1519 1519 1518 1518 1518 1518 1517 1517 1517 1516 1516 1515 1515 1514 1514 1513 1512 1512 1511 1511